OBJECT G, 60241

Orbit data source: Space-Track

You're viewing an Uncataloged Satellite

Recently launched and/or uncataloged satellites may have evolving metadata. Metadata may include but not limited to: Owner, Maufacturer, Bus, Motor, and Mission.

OBJECT G, 60241 is a satellite in LEO that was launched on Tue, 09 Jul 2024 UTC via an ARIANE 62 launch vehicle from the French Guiana (FRGUI). Unknown objects in Earth's orbit typically refer to objects detected orbiting the Earth but have not yet been identified or cataloged. These objects could be anything from previously untracked satellites, spent rocket stages, debris from satellite collisions, or even natural meteoroids temporarily captured by Earth's gravity.

Loading next visibility...
Identifier
60241, 2024-128G
Orbit
LEO
Country
Flag of TBDTBD
Related business
None
Manufacturer
ORBMAT
Mission
Commercial Technology
Bus & Motor
CUBESAT 3U, Unknown motor
Mass
5 kg wet, 5 kg dry
Launch date (UTC)
2024-07-09 (1 year ago)
Launch vehicle
ARIANE 62
Launch site
French Guiana (FRGUI)
Object type
Unknown
Shape & HBR
Box, 0.1 m
Radar Cross Section
0.035 m², Small (<0.1 m²)

Expand to show TLE details & history
Last TLE update: 10 hours ago

TLE from 10 hours ago
0 OBJECT G
1 60241U 24128G   25261.08922351  .00004744  00000-0  34435-3 0  9997
2 60241  61.9902  88.0610 0056524  79.4594 281.2859 15.04072030 65339
Epoch: 2025-09-18T02:08Z
TLE epoch observation values (Epoch: 2025-09-18T02:08:28.911Z)
Latitude
0.00002°
Longitude
58.68472°
Altitude
548.671 km
Speed
7.592 km/s
True Right ascension
05h 52m 14s
True Declination
0° 00' 00"
Sunlit
Object was in daylight at epoch
Visualization orbit readout
Latitude
Unknown
Longitude
Unknown
Altitude
Unknown
Speed
Unknown
Apparent Right ascension
Unknown
Apparent Declination
Unknown
Sunlit
N/A
Visualization observer readout
Local Sidereal Time
05:27:49
Azimuth
Unknown
Elevation
Unknown
Doppler factor
Unknown
Orbital elements
Apogee altitude
592.464 km
Perigee altitude
514.106 km
Semi-major axis
6,931.422 km
Eccentricity
0.00565
Inclination
61.9902°
RAAN
88.061°
Arg. of periapsis
79.4594°
True anomaly
280.64984°
Mean anomaly
281.2859°
Eccentric anomaly
280.96796°
Mean motion
3.76105 °/min
Orbital period
95.72 mins
BSTAR
0.00034435
Loading maneuver chart data...
Computing Atmospheric mass density...
Loading historical data...
Loading historical data...
Loading historical data...
Loading historical data...
Loading historical data...
Loading historical data...
Loading historical data...

Documentation

Showing up to 5 results
|